Dewpoint
39 35 34 35 32 32 31 28 28 27 23 22 23 23 24 25 27 28 28 29 34 34 33 33 33 33 32 32 34 37 39 39 42 45 46 47 49 55
34 33 32 32 30 30 27 27 24 24 23 20 19 23 24 19 24 27 26 31 31 33 33 33 35 33 32 32 33 36 38 39 40 43 44 45 47 49
33 32 31 30 29 26 26 25 24 22 21 21 21 23 23 24 23 24 25 26 25 29 32 33 35 34 32 31 31 32 36 38 39 41 42 44 46 46
29 27 25 20 25 24 23 21 22 21 20 18 21 22 22 23 24 24 20 18 22 25 31 32 33 33 33 33 32 33 35 38 39 40 40 42 44 45
25 25 24 24 23 21 21 21 20 17 20 21 21 22 21 22 21 21 21 22 18 26 29 31 33 33 33 32 32 32 35 38 39 40 40 42 42 42
24 24 22 21 21 21 19 19 18 18 19 20 20 19 18 21 21 21 21 23 22 15 24 30 33 32 33 33 32 33 35 39 39 39 39 40 39 40
23 20 20 21 20 21 18 19 19 18 19 18 18 21 22 22 21 21 23 21 23 25 24 24 24 28 30 32 30 31 31 35 38 38 39 40 39 39
21 20 19 23 22 23 22 22 22 20 21 25 23 21 18 18 24 25 25 22 20 25 26 28 29 30 28 29 33 30 30 31 34 36 39 38 38 38
22 20 18 14 21 19 22 22 22 23 24 24 25 24 24 23 21 22 21 24 24 24 25 25 28 28 28 24 30 28 28 29 30 33 38 37 36 36
23 21 20 19 20 20 18 19 19 19 19 19 23 20 20 20 22 21 24 24 24 23 23 24 28 28 29 28 30 30 29 29 29 31 35 37 36 35
22 21 20 19 21 20 18 20 17 15 19 22 20 22 25 26 26 26 27 24 25 22 26 26 30 28 29 31 33 33 31 29 31 31 30 37 37 36
23 20 23 18 19 19 20 19 19 16 13 14 17 20 23 23 27 26 28 27 25 24 22 24 25 24 25 31 31 33 34 31 30 30 29 31 38 37
22 21 21 21 19 18 18 19 21 17 18 19 20 21 22 23 24 25 27 28 27 27 27 24 23 22 21 24 28 31 33 35 34 32 30 32 35 38
23 23 24 21 19 18 17 16 17 19 22 21 22 21 22 23 24 26 31 33 32 28 27 28 27 23 23 25 24 28 32 34 35 35 36 34 31 33
25 24 21 20 18 18 15 16 19 19 18 18 19 19 21 23 24 27 29 30 33 34 27 30 29 26 27 27 28 29 27 31 34 35 36 35 35 35
26 25 23 22 21 21 19 19 19 19 16 17 18 19 21 23 23 26 27 28 29 31 33 32 31 30 28 28 27 27 28 29 33 34 35 36 36 36
24 24 23 21 20 19 19 17 18 17 15 16 17 17 16 18 22 24 24 25 26 26 30 33 32 32 31 30 30 29 28 29 31 31 30 31 33 36
22 23 24 25 23 21 19 18 18 17 16 15 16 16 16 16 17 21 22 23 23 24 26 28 31 31 30 30 29 30 32 28 32 31 31 31 30 33
22 22 24 25 24 20 19 17 17 18 18 17 16 17 17 16 19 18 20 21 20 21 22 25 27 26 25 26 28 28 32 33 32 32 30 30 33 31
23 22 23 24 23 19 18 18 18 19 19 17 18 19 19 17 17 15 16 18 17 18 17 19 23 22 23 24 28 28 27 32 31 32 30 32 30 29
25 25 27 24 22 21 23 23 22 21 20 19 19 18 19 17 16 15 16 17 17 13 14 17 20 24 24 28 27 27 28 26 28 30 29 29 26 27
28 26 26 24 25 24 25 24 23 22 21 19 19 19 20 18 17 16 16 15 14 14 14 17 22 23 27 25 27 26 27 28 26 26 26 26 27 27
30 28 29 29 28 26 23 23 22 22 21 19 18 18 18 18 17 16 16 14 13 12 12 15 19 24 24 20 22 26 25 26 26 25 26 25 26 27
Lifted_Index
9 8 7 6 5 4 4 4 4 5 5 5 5 5 6 6 6 6 6 6 6 6 7 7 7 7 8 9 10 11 12 12 11 9 7 5 4 5
8 8 7 5 4 4 4 4 4 5 5 5 6 6 6 6 6 6 6 6 6 6 6 6 7 7 8 9 10 10 11 11 11 10 8 6 5 4
8 7 6 5 4 4 4 4 5 5 6 6 6 6 7 6 6 6 6 6 6 5 5 6 6 7 7 8 9 9 9 10 10 10 9 7 6 5
7 6 5 5 5 5 5 5 6 6 6 7 7 7 7 7 6 6 6 6 6 5 5 5 5 6 7 8 8 8 8 8 9 9 9 8 7 6
6 6 5 5 6 6 7 7 7 7 8 8 8 7 7 7 7 7 6 6 6 6 5 5 5 5 6 7 8 7 7 7 7 8 9 8 7 6
6 6 6 6 7 7 8 8 9 9 9 9 8 8 7 7 7 7 6 6 6 5 5 4 4 5 5 6 7 7 6 6 6 7 8 8 7 7
6 6 6 7 8 8 9 9 10 10 10 9 8 8 8 7 7 7 6 6 5 4 4 4 4 4 4 5 6 6 6 6 6 6 7 8 7 7
6 6 7 7 8 9 9 10 11 11 10 9 9 8 8 8 7 7 6 5 4 4 3 3 3 3 3 4 5 6 6 6 6 6 6 7 8 8
6 7 7 7 8 9 10 11 11 11 10 9 9 9 9 9 8 7 6 5 4 3 3 3 3 3 3 4 5 6 7 7 6 6 6 7 8 8
7 7 7 8 9 10 11 11 11 10 10 10 10 10 10 9 8 7 6 5 4 3 3 3 3 3 3 4 5 6 7 7 7 6 6 6 7 8
7 7 8 8 9 11 11 11 10 10 10 10 10 10 10 9 8 7 6 5 4 3 3 3 3 3 3 4 4 5 7 7 7 6 6 6 7 7
7 7 8 8 10 11 12 11 11 11 11 11 11 10 9 9 8 7 6 5 4 4 3 3 3 3 3 4 4 5 6 7 7 7 6 6 7 7
8 8 8 9 10 11 12 12 12 12 12 11 11 10 9 9 8 7 6 5 4 4 4 4 4 4 4 4 4 5 6 6 7 7 6 6 7 7
8 8 8 9 10 10 11 12 12 12 12 11 11 10 10 9 8 7 6 5 5 5 4 4 5 5 5 5 5 5 6 6 6 6 6 6 6 7
8 8 8 9 9 10 11 11 11 11 12 11 11 11 10 10 9 8 7 6 5 5 5 5 5 5 5 5 5 5 6 6 6 6 6 6 6 6
8 8 8 8 9 9 10 10 11 11 11 12 11 11 11 10 9 8 7 6 5 5 5 5 5 6 6 6 5 5 6 6 6 6 6 6 6 6
8 8 8 8 8 9 9 10 10 11 11 11 11 11 11 11 10 9 8 7 6 6 5 5 5 6 6 6 6 6 6 6 6 7 7 6 6 6
7 7 8 8 8 8 9 9 10 10 11 11 11 11 11 11 11 10 9 8 7 7 6 6 6 6 6 6 6 6 6 6 7 7 7 7 6 6
7 7 7 8 8 8 8 9 9 10 10 10 10 11 11 11 11 11 10 9 8 8 7 7 7 6 6 6 7 7 7 7 7 7 7 7 7 6
7 7 7 7 8 8 8 8 9 9 9 9 10 10 11 11 11 11 11 11 10 9 8 8 8 7 7 7 7 8 8 8 8 7 7 7 7 7
7 7 7 7 7 8 8 8 8 8 8 9 9 10 10 10 11 11 12 12 11 10 10 9 9 9 8 8 7 8 8 9 8 8 8 8 8 8
7 7 7 7 7 8 8 8 8 8 8 8 9 9 9 10 10 11 12 12 12 12 11 11 10 9 9 8 8 8 8 9 9 9 9 8 8 8
7 7 7 7 7 7 8 8 8 8 8 8 8 9 9 9 10 11 12 12 12 12 12 12 11 10 9 9 8 8 9 9 9 9 9 9 9 8